SCP
0 -0 0 -0 0 0 0 -0 0 -0 0 0 -0 0 0 0 0 0 0 0 0 0 0 0 0 1 0 0 0 0 0 0 0 0 0 0 0 0 0 0 0 0 0 0
-0 -0 -0 -0 -0 0 0 0 0 0 0 0 0 0 0 0 -0 -0 -0 0 0 0 0 1 0 0 0 0 -0 -0 0 0 0 0 0 1 0 0 0 0 0 0 0 0
0 -0 -0 -0 0 0 0 0 0 0 -0 -0 0 0 0 0 -0 0 -0 0 0 0 0 0 0 0 0 0 0 -0 -0 0 1 1 0 0 1 0 0 0 0 0 0 0
-0 -0 0 -0 0 0 0 -0 0 0 0 -0 0 0 0 0 0 0 0 0 1 0 0 0 0 0 0 0 -0 0 -0 0 0 -0 0 1 1 1 0 0 0 0 0 0
-0 0 0 0 0 0 0 -0 -0 -0 0 0 0 0 0 0 0 0 0 0 -0 0 0 0 0 0 -0 -0 -0 0 -0 0 0 -0 1 1 1 0 0 0 0 0 0 0
0 -0 0 0 0 0 0 0 0 0 0 0 -0 0 -0 0 0 0 0 -0 -0 0 0 0 -0 0 -0 -0 -0 -0 -0 0 0 0 1 1 1 0 0 0 0 0 0 0
0 0 0 0 0 0 -0 -0 0 0 0 -0 -0 0 0 -0 0 -0 -0 -0 0 -0 -0 -0 -0 -0 -0 -0 -0 -0 0 0 0 1 0 0 0 0 0 0 0 0 0 0
0 0 0 0 0 -0 0 0 0 0 0 0 -0 0 0 0 0 0 0 -0 0 0 -0 -0 -0 -0 -0 0 -0 0 0 0 0 0 0 0 0 0 0 0 0 0 0 0
0 0 0 0 0 0 0 0 0 0 0 0 0 0 -0 0 0 0 0 0 0 0 0 0 0 0 0 0 0 0 0 0 0 0 0 0 0 0 0 0 0 0 0 0
0 0 0 0 0 0 0 0 0 0 0 0 0 0 0 0 0 0 0 0 0 -0 0 0 0 0 0 -0 0 0 0 0 0 0 0 0 0 0 0 0 0 0 0 0
0 0 0 0 0 0 0 0 0 0 0 0 0 0 0 0 0 0 0 0 0 0 0 0 0 0 -0 0 0 0 0 0 0 0 0 0 0 0 0 0 0 0 0 0
0 0 0 -0 0 -0 0 -0 0 0 0 0 0 0 0 0 0 0 0 0 0 0 0 0 0 0 0 0 0 0 0 0 0 0 0 0 0 -0 0 0 0 0 0 0
0 0 0 0 0 -0 0 0 0 0 0 0 0 0 0 -0 0 0 0 0 0 0 0 0 0 0 0 0 0 0 0 0 0 0 0 0 0 0 0 0 0 0 0 0
0 0 0 0 0 0 0 0 0 0 0 0 0 0 0 0 0 -0 0 0 0 0 0 0 0 0 0 0 0 0 0 0 0 0 0 0 0 0 0 0 0 0 0 0
0 0 0 0 0 0 0 0 0 0 0 0 0 0 -0 -0 -0 0 0 0 0 0 0 0 0 0 0 0 0 0 0 0 0 0 0 0 0 0 0 0 0 0 0 0
0 0 0 0 0 0 0 0 0 0 0 0 0 0 -0 -0 0 0 0 0 0 0 0 0 0 0 0 0 0 0 0 0 0 0 0 0 0 0 0 0 0 0 0 0
0 0 0 0 0 0 0 0 0 0 0 0 0 -0 0 0 0 0 0 0 0 0 0 0 0 0 0 0 0 0 0 0 0 0 0 0 0 0 0 0 0 0 0 0
0 0 0 0 0 0 0 0 0 0 0 0 0 0 0 0 0 0 0 0 0 0 0 0 0 0 0 0 0 0 0 0 0 0 0 0 0 0 0 0 0 0 0 0
0 0 0 0 0 0 0 0 0 0 0 0 0 0 0 0 0 0 0 0 0 0 0 0 0 0 0 0 0 0 0 0 0 0 0 0 0 0 0 0 0 0 0 0
0 0 0 0 0 0 0 0 0 0 0 0 0 0 0 0 0 0 0 0 0 0 0 0 0 0 0 0 0 0 0 0 0 0 0 0 0 0 0 0 0 0 0 0
0 0 0 0 0 0 0 0 0 0 0 0 0 0 0 0 0 0 0 0 0 0 0 0 0 0 0 0 0 0 0 0 0 0 0 0 0 0 0 0 0 0 0 0
0 0 0 0 0 0 0 0 0 0 0 0 0 0 0 0 0 0 0 0 0 0 0 0 0 0 0 0 0 0 0 0 0 0 0 0 0 0 0 0 0 0 0 0
0 0 0 0 0 0 0 0 0 0 0 0 0 0 0 0 0 0 0 0 0 0 0 0 0 0 0 0 0 0 0 0 0 0 0 0 0 0 0 0 0 0 0 0
0 0 0 0 0 0 0 0 0 0 0 0 0 0 0 0 0 0 0 0 0 0 0 0 0 0 0 0 0 0 0 0 0 0 0 0 0 0 0 0 0 0 0 0
0 0 0 0 0 0 0 0 0 0 0 0 0 0 0 0 0 0 0 0 0 0 0 0 0 0 0 0 0 0 0 0 0 0 0 0 0 0 0 0 0 0 0 0
0 0 0 0 0 0 0 0 0 0 0 -0 0 0 0 0 0 0 0 0 0 0 0 0 0 0 0 0 0 0 0 0 0 0 0 0 0 0 0 0 0 0 0 0
Wind_Speed_500mb
11 12 12 25 15 10 6 11 5 7 10 8 8 19 14 24 40 40 57 57 42 39 33 28 17 19 23 9 28 14 23 6 22 33 20 19 12 14 22 22 30 37 33 35
13 13 29 15 16 10 13 10 5 7 11 19 24 15 12 23 14 13 34 40 33 38 27 23 22 27 25 22 31 17 8 9 20 22 24 23 19 18 21 24 32 28 29 34
9 25 19 12 6 19 7 11 8 2 8 9 12 14 16 17 28 16 26 16 30 35 31 19 22 23 26 20 12 25 17 13 6 16 26 28 23 24 25 28 24 21 21 26
12 36 14 14 9 8 8 6 4 9 7 6 9 3 13 14 20 27 32 14 25 41 35 20 15 12 11 9 21 17 5 27 17 5 19 23 22 32 35 35 26 27 32 25
16 8 12 14 1 6 2 13 17 10 14 14 21 12 15 7 19 19 36 39 12 34 41 29 10 9 3 7 5 15 28 21 8 12 18 30 22 30 36 34 35 32 39 34
15 3 8 10 23 13 5 16 18 12 7 11 10 10 12 9 11 12 34 42 40 36 28 21 3 1 11 10 11 21 23 15 18 19 25 28 34 39 43 44 29 33 36 45
15 12 12 13 18 24 23 17 9 11 11 6 9 13 12 8 16 16 29 45 39 36 26 22 16 5 10 16 18 17 14 23 22 23 29 33 38 42 39 35 31 35 40 45
6 12 20 20 9 13 12 11 9 1 2 5 10 5 6 2 31 54 52 48 44 37 26 11 21 23 13 17 12 17 12 16 11 21 25 23 23 21 20 23 28 35 34 30
7 8 3 28 17 7 10 11 12 10 5 8 6 10 8 34 38 60 60 78 66 61 50 24 28 36 33 30 30 31 31 29 29 26 22 21 19 22 30 37 40 36 38 42
10 8 9 7 14 23 11 3 6 8 3 5 7 2 3 20 20 22 39 52 42 38 34 39 34 32 32 31 34 35 31 29 28 23 23 26 29 38 46 51 52 45 40 36
8 8 12 14 5 6 11 9 9 6 8 8 5 5 5 14 9 14 30 39 34 32 34 36 30 33 34 39 43 39 32 32 28 25 28 34 43 50 56 52 42 45 41 30
5 10 6 13 3 9 5 4 8 8 9 3 8 2 12 10 24 37 37 40 41 40 38 30 32 36 40 40 33 32 34 41 37 37 45 53 48 54 51 42 46 38 37 31
5 4 6 15 13 2 10 1 7 2 7 7 7 5 6 10 17 24 29 30 38 36 35 32 34 38 34 32 31 31 36 44 46 45 47 45 52 50 45 39 39 37 35 35
8 8 14 12 14 8 1 8 3 11 7 4 12 10 12 11 5 20 28 30 34 33 33 32 33 33 33 31 27 29 34 39 36 42 48 51 50 52 40 36 35 37 36 37
9 7 7 9 9 6 12 9 12 9 11 10 11 16 17 16 20 19 18 29 30 30 34 35 33 31 30 30 21 22 28 30 35 43 47 48 49 41 34 40 37 34 35 36
8 1 5 11 14 13 1 7 17 9 12 16 15 5 11 21 17 16 13 24 28 28 29 30 26 26 32 30 20 26 32 37 40 48 49 46 43 33 35 38 38 34 35 37
5 7 7 6 4 4 12 11 12 10 8 17 12 13 28 14 17 11 28 24 22 22 23 25 24 26 30 28 25 28 34 39 45 49 44 48 37 37 34 37 36 37 37 37
8 8 5 3 9 5 10 7 15 26 10 15 19 23 37 34 20 24 18 14 18 17 18 21 25 25 24 21 24 27 35 41 46 44 42 45 30 36 37 34 33 35 36 38
6 9 7 6 4 3 6 7 5 6 3 5 18 23 36 31 27 16 15 15 17 16 20 21 22 21 22 25 28 34 41 39 47 33 40 41 27 36 35 32 32 34 32 36
12 14 10 4 6 10 12 7 7 9 1 6 33 39 42 34 7 6 21 14 15 15 19 20 20 19 28 29 33 36 35 41 42 38 35 32 23 33 34 32 29 30 34 35
6 7 9 4 4 10 13 19 10 5 13 9 33 44 43 11 16 32 23 18 16 17 17 17 16 21 28 33 36 41 34 41 28 27 35 32 26 31 31 26 26 27 25 26
11 10 5 6 5 8 22 7 10 11 6 29 33 29 33 36 38 30 20 16 16 17 14 15 17 16 21 31 37 44 30 33 20 24 28 31 25 27 28 23 21 19 22 25
2 11 11 14 12 14 27 18 22 28 43 41 35 34 41 42 33 24 19 16 17 15 11 14 15 14 21 29 37 41 33 22 24 25 24 24 21 25 29 23 22 16 17 23
8 11 7 8 3 20 29 27 31 32 42 38 37 40 34 38 26 18 14 18 17 9 11 13 10 10 20 29 33 40 36 20 23 25 26 20 21 23 20 27 28 26 24 22
7 5 7 5 8 16 23 34 40 41 40 39 31 30 29 27 20 7 13 12 8 6 12 17 11 10 18 24 30 38 34 15 20 23 23 20 21 22 18 20 25 28 31 26
6 4 8 9 13 19 35 47 47 46 43 34 38 39 30 20 16 4 6 7 3 8 13 12 8 8 16 21 25 32 31 16 17 22 24 20 22 25 23 25 24 24 25 26
Wind_Direction_500mb
2 31 283 273 258 242 254 145 94 261 258 15 324 51 13 57 103 129 158 174 184 204 177 157 157 194 178 36 175 156 189 207 314 305 253 236 285 287 302 290 291 290 278 272
1 287 265 242 280 113 94 118 221 282 271 88 77 31 345 35 98 139 173 195 211 201 173 126 104 127 146 71 58 54 126 207 273 279 262 286 291 291 300 291 290 275 274 273
197 253 320 273 16 85 41 61 8 281 348 97 101 36 10 330 354 73 78 190 198 209 175 169 142 116 113 46 23 150 169 199 261 246 273 290 294 302 293 297 292 277 276 275
244 277 224 64 81 114 46 255 38 334 18 70 19 24 355 330 329 356 24 127 208 201 181 184 203 190 322 280 151 128 24 262 340 144 275 278 292 299 304 308 285 286 293 288
271 307 76 68 296 102 318 46 24 4 76 87 356 71 281 336 348 341 345 22 77 185 191 187 214 339 44 40 327 307 324 293 292 325 288 282 294 304 305 296 298 286 290 299
244 168 91 141 51 46 24 40 33 40 65 51 312 112 305 6 315 32 50 83 100 137 149 161 164 96 17 344 307 293 308 319 314 318 303 303 298 295 296 296 296 300 310 320
345 349 343 25 71 18 58 50 2 18 19 186 283 59 239 337 2 43 88 82 88 111 121 111 90 22 338 338 343 360 319 337 321 309 298 297 293 290 294 311 315 322 326 322
53 14 359 326 64 162 62 104 127 92 141 246 350 121 322 223 55 70 72 96 90 92 90 123 55 43 33 45 26 21 25 349 294 288 315 339 342 350 351 346 332 323 326 326
133 61 148 61 22 60 321 41 176 122 55 68 318 328 305 52 59 64 73 82 82 87 87 80 74 75 73 62 50 34 24 30 29 19 17 7 4 357 354 349 343 339 329 331
197 96 37 348 14 35 76 64 40 24 76 96 318 333 276 69 90 81 84 95 98 96 96 88 82 72 57 45 33 22 18 22 18 13 11 8 6 359 352 345 342 344 347 347
105 85 340 42 2 228 356 10 32 112 116 144 173 315 14 138 167 109 115 99 103 86 91 82 73 55 50 35 19 15 22 23 23 17 6 360 357 353 349 351 2 2 1 360
65 112 78 210 291 359 43 66 86 112 296 73 133 294 345 230 138 114 117 99 82 91 85 79 66 45 32 25 23 25 23 16 15 5 1 354 357 359 359 10 11 16 22 25
141 46 68 346 353 28 80 278 152 101 42 119 63 272 265 282 111 99 96 76 89 82 65 57 40 26 28 29 25 23 16 13 9 0 355 359 2 2 4 10 21 27 26 24
83 119 145 175 205 141 326 303 214 112 102 261 171 166 238 302 86 125 82 93 88 81 66 45 38 37 29 29 30 24 20 10 2 359 1 3 5 3 10 16 29 27 25 22
94 102 119 214 119 154 189 227 227 146 153 143 177 165 204 218 207 118 71 97 84 69 55 38 28 27 27 22 22 22 11 5 4 4 6 10 4 6 23 37 31 28 23 23
10 140 87 22 181 180 356 354 100 89 132 77 141 183 194 195 164 125 72 96 79 63 47 25 24 20 17 20 23 16 12 8 8 8 10 7 10 18 19 25 24 25 27 25
76 103 66 298 24 86 25 337 92 86 58 156 187 189 166 201 189 133 113 92 92 63 40 22 19 19 20 23 15 10 9 8 7 2 10 8 16 26 33 29 25 28 27 26
118 90 97 213 26 52 232 339 107 106 79 94 107 161 176 169 147 129 106 95 92 60 35 30 15 15 27 26 10 13 10 11 1 4 13 5 18 20 24 25 30 32 32 30
218 107 66 110 123 332 357 12 29 123 39 245 150 149 157 143 126 127 129 110 86 45 21 24 20 24 28 22 14 9 5 7 359 15 15 12 24 33 32 31 37 32 39 38
58 67 108 87 126 193 232 251 40 84 339 165 150 163 163 148 114 232 137 102 75 35 21 21 14 24 23 19 7 5 14 5 9 30 15 26 42 31 33 35 39 41 43 39
47 31 116 97 145 283 248 257 355 111 230 179 149 147 168 139 134 143 129 90 52 29 17 17 14 20 28 20 3 11 11 7 37 30 27 28 29 25 30 34 38 39 34 36
159 131 133 97 93 301 212 194 169 179 89 143 137 131 125 129 133 126 103 72 38 21 17 19 16 29 28 14 359 7 8 4 19 15 31 15 16 16 21 26 35 42 41 38
12 173 176 172 209 220 181 175 147 136 133 145 144 140 138 134 127 117 94 44 24 16 28 26 16 25 15 10 359 8 9 6 12 25 20 13 21 26 28 37 43 41 34 32
326 156 112 92 283 184 180 169 158 167 155 149 144 147 144 132 127 104 58 12 358 28 27 25 12 11 10 359 2 6 6 20 38 30 23 25 38 30 44 50 51 45 38 37
241 78 111 31 78 121 181 170 165 159 155 159 166 175 165 151 131 88 12 3 10 23 17 10 10 3 10 357 7 5 6 25 24 26 33 37 33 32 50 42 36 38 38 36
2 197 139 209 179 145 167 171 167 163 168 175 170 155 158 174 154 129 44 22 11 357 357 357 15 10 353 4 359 352 1 7 21 41 41 39 44 43 46 33 32 37 35 32
Wind_Speed_850mb
11 12 12 25 15 10 6 11 5 7 10 8 8 19 14 24 40 40 57 57 42 39 33 28 17 19 23 9 28 14 23 6 22 33 20 19 12 14 22 22 30 37 33 35
13 13 29 15 16 10 13 10 5 7 11 19 24 15 12 23 14 13 34 40 33 38 27 23 22 27 25 22 31 17 8 9 20 22 24 23 19 18 21 24 32 28 29 34
9 25 19 12 6 19 7 11 8 2 8 9 12 14 16 17 28 16 26 16 30 35 31 19 22 23 26 20 12 25 17 13 6 16 26 28 23 24 25 28 24 21 21 26
12 36 14 14 9 8 8 6 4 9 7 6 9 3 13 14 20 27 32 14 25 41 35 20 15 12 11 9 21 17 5 27 17 5 19 23 22 32 35 35 26 27 32 25
16 8 12 14 1 6 2 13 17 10 14 14 21 12 15 7 19 19 36 39 12 34 41 29 10 9 3 7 5 15 28 21 8 12 18 30 22 30 36 34 35 32 39 34
15 3 8 10 23 13 5 16 18 12 7 11 10 10 12 9 11 12 34 42 40 36 28 21 3 1 11 10 11 21 23 15 18 19 25 28 34 39 43 44 29 33 36 45
15 12 12 13 18 24 23 17 9 11 11 6 9 13 12 8 16 16 29 45 39 36 26 22 16 5 10 16 18 17 14 23 22 23 29 33 38 42 39 35 31 35 40 45
6 12 20 20 9 13 12 11 9 1 2 5 10 5 6 2 31 54 52 48 44 37 26 11 21 23 13 17 12 17 12 16 11 21 25 23 23 21 20 23 28 35 34 30
7 8 3 28 17 7 10 11 12 10 5 8 6 10 8 34 38 60 60 78 66 61 50 24 28 36 33 30 30 31 31 29 29 26 22 21 19 22 30 37 40 36 38 42
10 8 9 7 14 23 11 3 6 8 3 5 7 2 3 20 20 22 39 52 42 38 34 39 34 32 32 31 34 35 31 29 28 23 23 26 29 38 46 51 52 45 40 36
8 8 12 14 5 6 11 9 9 6 8 8 5 5 5 14 9 14 30 39 34 32 34 36 30 33 34 39 43 39 32 32 28 25 28 34 43 50 56 52 42 45 41 30
5 10 6 13 3 9 5 4 8 8 9 3 8 2 12 10 24 37 37 40 41 40 38 30 32 36 40 40 33 32 34 41 37 37 45 53 48 54 51 42 46 38 37 31
5 4 6 15 13 2 10 1 7 2 7 7 7 5 6 10 17 24 29 30 38 36 35 32 34 38 34 32 31 31 36 44 46 45 47 45 52 50 45 39 39 37 35 35
8 8 14 12 14 8 1 8 3 11 7 4 12 10 12 11 5 20 28 30 34 33 33 32 33 33 33 31 27 29 34 39 36 42 48 51 50 52 40 36 35 37 36 37
9 7 7 9 9 6 12 9 12 9 11 10 11 16 17 16 20 19 18 29 30 30 34 35 33 31 30 30 21 22 28 30 35 43 47 48 49 41 34 40 37 34 35 36
8 1 5 11 14 13 1 7 17 9 12 16 15 5 11 21 17 16 13 24 28 28 29 30 26 26 32 30 20 26 32 37 40 48 49 46 43 33 35 38 38 34 35 37
5 7 7 6 4 4 12 11 12 10 8 17 12 13 28 14 17 11 28 24 22 22 23 25 24 26 30 28 25 28 34 39 45 49 44 48 37 37 34 37 36 37 37 37
8 8 5 3 9 5 10 7 15 26 10 15 19 23 37 34 20 24 18 14 18 17 18 21 25 25 24 21 24 27 35 41 46 44 42 45 30 36 37 34 33 35 36 38
6 9 7 6 4 3 6 7 5 6 3 5 18 23 36 31 27 16 15 15 17 16 20 21 22 21 22 25 28 34 41 39 47 33 40 41 27 36 35 32 32 34 32 36
12 14 10 4 6 10 12 7 7 9 1 6 33 39 42 34 7 6 21 14 15 15 19 20 20 19 28 29 33 36 35 41 42 38 35 32 23 33 34 32 29 30 34 35
6 7 9 4 4 10 13 19 10 5 13 9 33 44 43 11 16 32 23 18 16 17 17 17 16 21 28 33 36 41 34 41 28 27 35 32 26 31 31 26 26 27 25 26
11 10 5 6 5 8 22 7 10 11 6 29 33 29 33 36 38 30 20 16 16 17 14 15 17 16 21 31 37 44 30 33 20 24 28 31 25 27 28 23 21 19 22 25
2 11 11 14 12 14 27 18 22 28 43 41 35 34 41 42 33 24 19 16 17 15 11 14 15 14 21 29 37 41 33 22 24 25 24 24 21 25 29 23 22 16 17 23
8 11 7 8 3 20 29 27 31 32 42 38 37 40 34 38 26 18 14 18 17 9 11 13 10 10 20 29 33 40 36 20 23 25 26 20 21 23 20 27 28 26 24 22
7 5 7 5 8 16 23 34 40 41 40 39 31 30 29 27 20 7 13 12 8 6 12 17 11 10 18 24 30 38 34 15 20 23 23 20 21 22 18 20 25 28 31 26
6 4 8 9 13 19 35 47 47 46 43 34 38 39 30 20 16 4 6 7 3 8 13 12 8 8 16 21 25 32 31 16 17 22 24 20 22 25 23 25 24 24 25 26
Wind_Direction_850mb
2 31 283 273 258 242 254 145 94 261 258 15 324 51 13 57 103 129 158 174 184 204 177 157 157 194 178 36 175 156 189 207 314 305 253 236 285 287 302 290 291 290 278 272
1 287 265 242 280 113 94 118 221 282 271 88 77 31 345 35 98 139 173 195 211 201 173 126 104 127 146 71 58 54 126 207 273 279 262 286 291 291 300 291 290 275 274 273
197 253 320 273 16 85 41 61 8 281 348 97 101 36 10 330 354 73 78 190 198 209 175 169 142 116 113 46 23 150 169 199 261 246 273 290 294 302 293 297 292 277 276 275
244 277 224 64 81 114 46 255 38 334 18 70 19 24 355 330 329 356 24 127 208 201 181 184 203 190 322 280 151 128 24 262 340 144 275 278 292 299 304 308 285 286 293 288
271 307 76 68 296 102 318 46 24 4 76 87 356 71 281 336 348 341 345 22 77 185 191 187 214 339 44 40 327 307 324 293 292 325 288 282 294 304 305 296 298 286 290 299
244 168 91 141 51 46 24 40 33 40 65 51 312 112 305 6 315 32 50 83 100 137 149 161 164 96 17 344 307 293 308 319 314 318 303 303 298 295 296 296 296 300 310 320
345 349 343 25 71 18 58 50 2 18 19 186 283 59 239 337 2 43 88 82 88 111 121 111 90 22 338 338 343 360 319 337 321 309 298 297 293 290 294 311 315 322 326 322
53 14 359 326 64 162 62 104 127 92 141 246 350 121 322 223 55 70 72 96 90 92 90 123 55 43 33 45 26 21 25 349 294 288 315 339 342 350 351 346 332 323 326 326
133 61 148 61 22 60 321 41 176 122 55 68 318 328 305 52 59 64 73 82 82 87 87 80 74 75 73 62 50 34 24 30 29 19 17 7 4 357 354 349 343 339 329 331
197 96 37 348 14 35 76 64 40 24 76 96 318 333 276 69 90 81 84 95 98 96 96 88 82 72 57 45 33 22 18 22 18 13 11 8 6 359 352 345 342 344 347 347
105 85 340 42 2 228 356 10 32 112 116 144 173 315 14 138 167 109 115 99 103 86 91 82 73 55 50 35 19 15 22 23 23 17 6 360 357 353 349 351 2 2 1 360
65 112 78 210 291 359 43 66 86 112 296 73 133 294 345 230 138 114 117 99 82 91 85 79 66 45 32 25 23 25 23 16 15 5 1 354 357 359 359 10 11 16 22 25
141 46 68 346 353 28 80 278 152 101 42 119 63 272 265 282 111 99 96 76 89 82 65 57 40 26 28 29 25 23 16 13 9 0 355 359 2 2 4 10 21 27 26 24
83 119 145 175 205 141 326 303 214 112 102 261 171 166 238 302 86 125 82 93 88 81 66 45 38 37 29 29 30 24 20 10 2 359 1 3 5 3 10 16 29 27 25 22
94 102 119 214 119 154 189 227 227 146 153 143 177 165 204 218 207 118 71 97 84 69 55 38 28 27 27 22 22 22 11 5 4 4 6 10 4 6 23 37 31 28 23 23
10 140 87 22 181 180 356 354 100 89 132 77 141 183 194 195 164 125 72 96 79 63 47 25 24 20 17 20 23 16 12 8 8 8 10 7 10 18 19 25 24 25 27 25
76 103 66 298 24 86 25 337 92 86 58 156 187 189 166 201 189 133 113 92 92 63 40 22 19 19 20 23 15 10 9 8 7 2 10 8 16 26 33 29 25 28 27 26
118 90 97 213 26 52 232 339 107 106 79 94 107 161 176 169 147 129 106 95 92 60 35 30 15 15 27 26 10 13 10 11 1 4 13 5 18 20 24 25 30 32 32 30
218 107 66 110 123 332 357 12 29 123 39 245 150 149 157 143 126 127 129 110 86 45 21 24 20 24 28 22 14 9 5 7 359 15 15 12 24 33 32 31 37 32 39 38
58 67 108 87 126 193 232 251 40 84 339 165 150 163 163 148 114 232 137 102 75 35 21 21 14 24 23 19 7 5 14 5 9 30 15 26 42 31 33 35 39 41 43 39
47 31 116 97 145 283 248 257 355 111 230 179 149 147 168 139 134 143 129 90 52 29 17 17 14 20 28 20 3 11 11 7 37 30 27 28 29 25 30 34 38 39 34 36
159 131 133 97 93 301 212 194 169 179 89 143 137 131 125 129 133 126 103 72 38 21 17 19 16 29 28 14 359 7 8 4 19 15 31 15 16 16 21 26 35 42 41 38
12 173 176 172 209 220 181 175 147 136 133 145 144 140 138 134 127 117 94 44 24 16 28 26 16 25 15 10 359 8 9 6 12 25 20 13 21 26 28 37 43 41 34 32
326 156 112 92 283 184 180 169 158 167 155 149 144 147 144 132 127 104 58 12 358 28 27 25 12 11 10 359 2 6 6 20 38 30 23 25 38 30 44 50 51 45 38 37
241 78 111 31 78 121 181 170 165 159 155 159 166 175 165 151 131 88 12 3 10 23 17 10 10 3 10 357 7 5 6 25 24 26 33 37 33 32 50 42 36 38 38 36
2 197 139 209 179 145 167 171 167 163 168 175 170 155 158 174 154 129 44 22 11 357 357 357 15 10 353 4 359 352 1 7 21 41 41 39 44 43 46 33 32 37 35 32